GW7366 Weather Reports


time (UTC)temp
F
wind
direction
speed
knots
gust
knots
rain 1hr
in
rain 24hr
in
rain mn
in
humidity
%
barometer
mb
20260504023425 55 150 0.9 1.7 0.00 0.00 0.00 73 1010.8
20260504022920 55 81 0.0 3.5 0.00 0.00 0.00 74 1010.8
20260504022417 55 108 0.0 2.6 0.00 0.00 0.00 73 1010.5
20260504021914 55 159 1.7 3.5 0.00 0.00 0.00 73 1010.5
20260504021411 55 159 1.7 3.5 0.00 0.00 0.00 73 1010.5
20260504020908 55 159 0.9 1.7 0.00 0.00 0.00 75 1010.5
20260504020405 55 159 0.0 1.7 0.00 0.00 0.00 75 1010.5
20260504015901 55 159 0.0 0.0 0.00 0.00 0.00 74 1010.5
20260504015357 56 159 0.0 0.0 0.00 0.00 0.00 73 1010.5
20260504014853 56 159 0.9 2.6 0.00 0.00 0.00 73 1010.5
20260504014349 56 158 0.0 0.9 0.00 0.00 0.00 73 1010.5
20260504013847 56 158 0.9 2.6 0.00 0.00 0.00 72 1010.5
20260504013345 56 158 0.0 1.7 0.00 0.00 0.00 72 1010.5
20260504012841 57 158 0.9 2.6 0.00 0.00 0.00 71 1010.5
20260504012339 57 158 0.0 0.0 0.00 0.00 0.00 70 1010.5
20260504011836 57 158 0.9 2.6 0.00 0.00 0.00 69 1010.5
20260504011332 58 158 0.0 0.9 0.00 0.00 0.00 69 1010.5
20260504010829 58 158 0.9 2.6 0.00 0.00 0.00 68 1010.5
20260504010324 59 130 0.0 1.7 0.00 0.00 0.00 68 1010.5
20260504005821 59 130 0.0 0.0 0.00 0.00 0.00 66 1010.5
20260504005318 60 265 0.0 0.0 0.00 0.00 0.00 65 1010.5
20260504004816 60 170 0.0 0.0 0.00 0.00 0.00 64 1010.5
20260504004313 61 170 0.0 1.7 0.00 0.00 0.00 63 1010.5
20260504003809 62 247 0.0 0.9 0.00 0.00 0.00 61 1010.5
20260504003307 62 247 0.0 1.7 0.00 0.00 0.00 59 1010.5
20260504002803 62 193 0.9 3.5 0.00 0.00 0.00 59 1010.5
20260504002300 63 193 2.6 4.3 0.00 0.00 0.00 58 1010.5
20260504001757 62 199 2.6 6.1 0.00 0.00 0.00 59 1010.5
20260504001254 63 216 1.7 4.3 0.00 0.00 0.00 60 1010.5
20260504000751 63 201 1.7 4.3 0.00 0.00 0.00 58 1010.5
20260504000248 64 137 1.7 7.0 0.00 0.00 0.00 58 1010.5
20260503235746 64 237 0.9 2.6 0.00 0.00 0.00 56 1010.5
20260503235243 64 224 3.5 10.4 0.00 0.00 0.00 57 1010.5
20260503234741 64 221 1.7 3.5 0.00 0.00 0.00 58 1010.5
20260503234239 63 201 2.6 4.3 0.00 0.00 0.00 59 1010.5
20260503233735 63 203 1.7 3.5 0.00 0.00 0.00 58 1010.8
20260503233231 63 178 1.7 4.3 0.00 0.00 0.00 57 1010.8
20260503232728 63 193 1.7 4.3 0.00 0.00 0.00 58 1010.8
20260503232226 64 203 2.6 5.2 0.00 0.00 0.00 58 1010.8
20260503231724 64 210 4.3 7.8 0.00 0.00 0.00 57 1010.8
20260503231220 64 184 2.6 5.2 0.00 0.00 0.00 57 1010.8
20260503230716 65 208 2.6 6.1 0.00 0.00 0.00 54 1010.8
20260503230214 64 202 3.5 7.0 0.00 0.00 0.00 56 1010.8
20260503225711 63 210 1.7 5.2 0.00 0.00 0.00 57 1010.8
20260503225206 63 185 2.6 4.3 0.00 0.00 0.00 56 1011.2
20260503224704 64 205 3.5 7.0 0.00 0.00 0.00 56 1011.2
20260503224201 65 208 3.5 6.1 0.00 0.00 0.00 54 1011.2
20260503223659 65 165 3.5 7.8 0.00 0.00 0.00 53 1011.2
20260503223156 64 196 3.5 8.7 0.00 0.00 0.00 54 1011.2
20260503222652 63 208 3.5 8.7 0.00 0.00 0.00 56 1011.2
20260503222150 63 193 5.2 9.6 0.00 0.00 0.00 56 1011.2
20260503221648 63 213 5.2 11.3 0.00 0.00 0.00 56 1011.2
20260503221145 62 196 5.2 8.7 0.00 0.00 0.00 57 1011.2
20260503220642 62 205 3.5 7.0 0.00 0.00 0.00 57 1011.5
20260503220138 62 228 4.3 7.8 0.00 0.00 0.00 57 1011.5
20260503215636 61 208 2.6 6.1 0.00 0.00 0.00 58 1011.5
20260503215132 62 213 3.5 7.0 0.00 0.00 0.00 57 1011.5
20260503214631 62 208 4.3 7.0 0.00 0.00 0.00 57 1011.2
20260503214126 62 195 4.3 7.0 0.00 0.00 0.00 55 1011.2
20260503213625 63 193 4.3 9.6 0.00 0.00 0.00 56 1011.2
20260503213122 63 180 3.5 7.8 0.00 0.00 0.00 54 1011.2
20260503212619 64 205 3.5 6.1 0.00 0.00 0.00 54 1011.2
20260503212116 66 220 5.2 10.4 0.00 0.00 0.00 52 1011.5
20260503211614 65 201 6.1 10.4 0.00 0.00 0.00 51 1011.2
20260503211109 65 196 5.2 9.6 0.00 0.00 0.00 50 1011.5
20260503210606 65 191 4.3 8.7 0.00 0.00 0.00 52 1011.5
20260503205559 64 204 3.5 7.0 0.00 0.00 0.00 52 1011.5
20260503205055 64 212 4.3 6.1 0.00 0.00 0.00 52 1011.9
20260503204552 65 201 7.0 13.0 0.00 0.00 0.00 52 1011.9
20260503204049 65 206 5.2 8.7 0.00 0.00 0.00 53 1011.5
20260503203546 65 191 5.2 9.6 0.00 0.00 0.00 51 1011.9
20260503203043 65 202 6.1 10.4 0.00 0.00 0.00 51 1011.5
20260503202541 65 170 8.7 19.1 0.00 0.00 0.00 50 1011.5
20260503202039 66 203 4.3 10.4 0.00 0.00 0.00 51 1011.5
20260503201532 65 182 3.5 7.0 0.00 0.00 0.00 52 1011.9
20260503201028 64 148 4.3 13.0 0.00 0.00 0.00 52 1012.3
20260503200524 64 213 7.0 11.3 0.00 0.00 0.00 51 1012.3
20260503200021 63 204 3.5 9.6 0.00 0.00 0.00 52 1012.3
20260503195519 63 187 6.1 13.9 0.00 0.00 0.00 51 1012.6
20260503195015 63 204 5.2 11.3 0.00 0.00 0.00 52 1012.6
20260503194513 63 180 5.2 13.0 0.00 0.00 0.00 51 1012.6
20260503194012 63 191 3.5 7.8 0.00 0.00 0.00 51 1013.0
20260503193509 63 198 6.1 9.6 0.00 0.00 0.00 50 1013.0
20260503193004 63 204 8.7 21.7 0.00 0.00 0.00 49 1013.0
20260503192501 63 212 4.3 9.6 0.00 0.00 0.00 49 1013.3
20260503191956 63 213 5.2 10.4 0.00 0.00 0.00 49 1013.3
20260503191454 65 182 7.0 11.3 0.00 0.00 0.00 48 1013.3
20260503190950 64 210 4.3 9.6 0.00 0.00 0.00 49 1013.3
20260503190448 62 187 6.1 10.4 0.00 0.00 0.00 49 1013.6
20260503185944 62 201 3.5 11.3 0.00 0.00 0.00 50 1013.6
20260503185441 62 185 4.3 8.7 0.00 0.00 0.00 50 1014.0
20260503184940 62 183 3.5 6.1 0.00 0.00 0.00 52 1014.0
20260503184437 62 190 5.2 10.4 0.00 0.00 0.00 51 1014.0
20260503183933 62 188 5.2 8.7 0.00 0.00 0.00 50 1014.3
20260503183430 63 190 5.2 13.0 0.00 0.00 0.00 51 1014.3
20260503182927 64 204 4.3 10.4 0.00 0.00 0.00 48 1014.3
20260503182426 63 191 3.5 7.8 0.00 0.00 0.00 52 1014.7
20260503181923 61 193 3.5 7.0 0.00 0.00 0.00 52 1015.0
20260503181420 60 203 3.5 6.1 0.00 0.00 0.00 55 1015.3
20260503180916 59 203 4.3 10.4 0.00 0.00 0.00 55 1015.7
20260503180414 58 190 3.5 6.1 0.00 0.00 0.00 58 1016.0
20260503175910 58 195 3.5 7.0 0.00 0.00 0.00 57 1016.4
20260503175408 58 204 2.6 6.1 0.00 0.00 0.00 56 1016.4
20260503174903 58 234 2.6 5.2 0.00 0.00 0.00 58 1016.4
20260503174403 58 230 3.5 5.2 0.00 0.00 0.00 56 1016.4
20260503173857 58 201 4.3 8.7 0.00 0.00 0.00 55 1016.0
20260503173354 59 239 7.0 13.0 0.00 0.00 0.00 55 1016.0
20260503172850 59 212 3.5 6.1 0.00 0.00 0.00 56 1016.0
20260503172348 59 238 4.3 7.0 0.00 0.00 0.00 55 1016.0
20260503171843 59 201 5.2 9.6 0.00 0.00 0.00 54 1016.0
20260503171341 59 217 5.2 8.7 0.00 0.00 0.00 56 1016.0
20260503170838 59 208 3.5 5.2 0.00 0.00 0.00 57 1016.4
20260503170335 59 198 1.7 7.0 0.00 0.00 0.00 56 1016.4
20260503150727 56 224 6.1 12.2 0.00 0.00 0.00 64 1017.8
20260503150223 55 213 5.2 8.7 0.00 0.00 0.00 64 1018.1
20260503140147 56 225 4.3 8.7 0.00 0.00 0.00 64 1018.8
20260503131117 51 188 4.3 7.0 0.00 0.00 0.00 69 1019.2
20260503130615 50 210 3.5 5.2 0.00 0.00 0.00 68 1018.8
20260503130112 50 227 4.3 7.8 0.00 0.00 0.00 70 1018.8
20260503110504 42 180 1.7 3.5 0.00 0.00 0.00 75 1018.1
20260503090355 41 221 2.6 3.5 0.00 0.00 0.00 75 1018.1
20260503081323 41 95 0.0 0.0 0.00 0.00 0.00 76 1018.5
20260503080819 40 95 0.0 0.0 0.00 0.00 0.00 77 1018.5
20260503080317 40 95 0.0 0.0 0.00 0.00 0.00 77 1018.5
20260503072753 39 317 0.0 0.0 0.00 0.00 0.00 81 1018.5
20260503072250 39 317 0.0 0.0 0.00 0.00 0.00 82 1018.5
20260503071746 39 317 0.0 0.0 0.00 0.00 0.00 81 1018.5
20260503071243 39 317 0.0 0.0 0.00 0.00 0.00 81 1018.5
20260503070739 39 317 0.0 0.0 0.00 0.00 0.00 81 1018.5
20260503070237 39 317 0.0 0.0 0.00 0.00 0.00 81 1018.5
20260503060202 39 317 0.0 0.0 0.00 0.00 0.00 84 1019.2
20260503054649 39 317 0.0 0.0 0.00 0.00 0.00 82 1019.2
20260503054146 39 317 0.0 0.0 0.00 0.00 0.00 81 1019.2
20260503053644 40 317 0.0 0.0 0.00 0.00 0.00 81 1019.2
20260503053143 39 317 0.0 0.0 0.00 0.00 0.00 81 1019.2
20260503052639 40 317 0.0 0.0 0.00 0.00 0.00 81 1019.2
20260503052135 40 317 0.0 0.0 0.00 0.00 0.00 81 1019.5
20260503051630 40 317 0.0 0.0 0.00 0.00 0.00 80 1019.2
20260503051129 41 317 0.0 0.0 0.00 0.00 0.00 80 1019.5
20260503050625 41 317 0.0 0.0 0.00 0.00 0.00 80 1019.5
20260503050122 41 317 0.0 0.0 0.00 0.00 0.00 79 1019.5
20260503045620 41 317 0.0 0.0 0.00 0.00 0.00 79 1019.5
20260503045116 41 317 0.0 0.0 0.00 0.00 0.00 78 1019.5
20260503044613 41 317 0.0 0.0 0.00 0.00 0.00 78 1019.5
20260503044111 41 317 0.0 0.0 0.00 0.00 0.00 79 1019.5
20260503043607 41 317 0.0 0.0 0.00 0.00 0.00 79 1019.5
20260503043104 41 317 0.0 0.0 0.00 0.00 0.00 77 1019.5
20260503042600 41 317 0.0 0.0 0.00 0.00 0.00 77 1019.5
20260503042056 41 317 0.0 0.0 0.00 0.00 0.00 77 1019.5
20260503041553 41 317 0.0 0.0 0.00 0.00 0.00 77 1019.2
20260503041051 41 317 0.0 0.0 0.00 0.00 0.00 77 1019.5
20260503040548 42 317 0.0 0.0 0.00 0.00 0.00 76 1019.5
20260503040045 42 317 0.0 0.0 0.00 0.00 0.00 77 1019.5
20260503035542 42 317 0.0 0.0 0.00 0.00 0.00 76 1019.5
20260503035040 42 317 0.0 0.0 0.00 0.00 0.00 75 1019.5
20260503034537 42 317 0.0 0.0 0.00 0.00 0.00 75 1019.5
20260503034034 41 317 0.0 0.0 0.00 0.00 0.00 76 1019.5
20260503033531 41 317 0.0 0.0 0.00 0.00 0.00 78 1019.5
20260503033029 41 317 0.0 0.0 0.00 0.00 0.00 79 1019.5
20260503032527 42 317 0.0 0.0 0.00 0.00 0.00 79 1019.5
20260503032025 42 317 0.0 0.0 0.00 0.00 0.00 77 1019.5
20260503031522 42 317 0.0 0.0 0.00 0.00 0.00 77 1019.8
20260503031019 42 317 0.0 0.0 0.00 0.00 0.00 80 1019.8
20260503030515 42 317 0.0 0.0 0.00 0.00 0.00 82 1019.8
20260503030013 42 317 0.0 0.0 0.00 0.00 0.00 84 1019.8
20260503025509 42 317 0.0 0.0 0.00 0.00 0.00 82 1019.8
20260503025007 42 317 0.0 0.0 0.00 0.00 0.00 77 1019.8
20260503024503 42 317 0.0 0.0 0.00 0.00 0.00 78 1019.8
20260503024000 43 317 0.0 0.0 0.00 0.00 0.00 80 1019.8